Temp
67 70 69 69 70 71 70 66 64 64 64 64 64 65 65 65 65 63 63 61 61 68
68 68 66 65 67 69 67 65 64 64 63 63 63 64 64 63 63 63 64 62 62 65
66 66 65 65 64 65 64 64 63 63 63 62 63 63 65 64 62 61 63 64 61 61
66 64 64 64 63 63 63 63 62 62 63 62 62 62 61 61 62 61 60 61 60 60
61 62 60 59 60 60 61 62 62 62 62 63 62 61 61 61 61 60 59 59 59 59
55 56 55 55 56 58 59 59 59 60 61 62 62 62 62 63 62 62 62 61 60 60
56 56 56 57 57 58 59 59 60 60 60 61 62 63 63 63 62 61 62 61 60 60
54 56 57 56 56 57 59 60 60 60 61 61 63 65 63 61 61 60 60 60 61 62
54 55 56 56 57 57 56 57 59 59 59 60 62 53 54 55 58 59 59 59 61 61
59 58 59 59 57 57 58 59 57 59 61 60 61 52 51 52 57 58 58 59 59 61
60 59 60 60 59 59 59 59 59 61 61 62 63 53 49 50 58 59 59 60 59 60
63 62 62 61 61 61 61 60 60 61 61 61 63 52 49 51 60 61 61 62 61 60
65 64 63 62 61 62 62 61 64 63 63 60 63 55 49 51 62 59 61 60 61 55
65 63 62 62 63 61 61 62 61 61 62 62 60 60 50 47 59 59 59 59 60 61
MSLP
1020.04 1020.05 1020.30 1020.44 1020.62 1020.49 1021.06 1022.21 1023.03 1023.02 1023.05 1023.15 1023.24 1023.23 1023.08 1023.05 1023.06 1023.34 1023.41 1023.44 1023.33 1022.35
1020.20 1020.33 1020.86 1021.42 1021.40 1021.20 1021.80 1022.71 1023.35 1023.49 1023.50 1023.54 1023.60 1023.48 1023.48 1023.60 1023.53 1023.47 1023.64 1023.79 1023.64 1022.90
1020.99 1021.33 1021.69 1021.80 1021.75 1021.89 1022.34 1022.85 1023.64 1023.90 1023.96 1023.99 1023.71 1023.78 1023.35 1023.54 1023.98 1023.90 1023.73 1023.83 1023.95 1023.65
1021.36 1021.97 1022.29 1022.38 1022.52 1022.81 1022.91 1023.16 1023.36 1023.89 1024.27 1024.23 1024.13 1024.11 1024.19 1024.05 1023.95 1023.97 1024.20 1024.16 1024.11 1023.99
1022.49 1022.75 1023.10 1023.33 1023.47 1023.58 1023.50 1023.44 1023.30 1023.42 1024.10 1024.34 1024.30 1024.36 1024.42 1024.13 1024.15 1024.09 1024.08 1024.21 1024.05 1024.11
1023.22 1023.56 1023.80 1023.94 1023.87 1023.90 1024.15 1024.13 1024.15 1024.39 1024.25 1023.93 1024.09 1024.36 1024.37 1024.07 1023.99 1023.98 1024.11 1023.94 1024.00 1023.82
1023.42 1023.73 1023.92 1024.12 1024.14 1024.17 1024.47 1024.53 1024.50 1024.40 1024.51 1024.44 1024.34 1024.04 1024.05 1024.00 1023.83 1023.65 1023.76 1023.92 1023.78 1023.78
1023.65 1023.70 1023.95 1024.20 1024.39 1024.56 1024.49 1024.48 1024.31 1024.20 1024.10 1024.04 1024.07 1023.80 1023.98 1024.30 1023.90 1023.71 1023.65 1023.87 1023.79 1023.21
1023.30 1023.70 1023.59 1023.87 1024.29 1024.42 1024.89 1024.45 1024.28 1024.29 1023.82 1023.77 1023.64 1024.18 1024.41 1024.56 1024.39 1023.86 1023.66 1023.24 1023.23 1023.05
1022.55 1023.16 1023.23 1023.50 1024.01 1023.99 1024.18 1023.85 1023.95 1023.83 1023.59 1023.22 1023.13 1023.83 1024.36 1024.15 1024.14 1023.86 1023.28 1022.93 1022.64 1022.25
1021.93 1022.29 1022.62 1022.86 1022.95 1023.28 1023.47 1023.38 1023.04 1023.13 1022.77 1022.66 1022.58 1023.02 1023.69 1023.77 1023.48 1023.26 1022.76 1022.36 1022.03 1021.73
1020.92 1021.11 1021.51 1021.85 1022.04 1022.44 1022.68 1022.50 1022.56 1022.36 1022.11 1021.99 1021.89 1022.19 1022.84 1023.26 1022.79 1022.21 1021.62 1021.23 1021.21 1021.22
1020.49 1020.78 1020.98 1021.35 1021.65 1021.76 1021.83 1021.78 1021.56 1021.26 1021.18 1021.27 1021.27 1021.34 1022.25 1022.70 1022.10 1021.47 1021.07 1020.71 1020.67 1020.66
1020.32 1020.59 1020.89 1021.02 1021.12 1021.24 1021.17 1020.92 1020.90 1020.75 1020.74 1020.93 1021.17 1021.22 1021.57 1022.12 1022.06 1021.55 1020.94 1020.38 1020.21 1020.28
Wind_Speed
8 7 6 1 6 3 6 6 5 5 6 6 5 5 4 5 6 5 6 6 6 4
5 4 9 6 3 5 7 7 6 5 6 5 5 4 4 5 5 4 3 5 5 5
8 7 6 5 6 6 7 8 6 5 5 4 5 4 2 5 5 4 4 4 4 6
9 7 6 6 7 7 6 6 5 4 3 4 5 4 4 4 4 5 5 5 5 6
6 7 6 6 6 5 4 4 4 6 4 3 5 4 4 3 4 4 4 4 4 5
5 5 4 4 4 5 5 4 3 1 3 5 5 5 3 3 3 2 2 4 5 6
4 3 3 3 3 6 5 6 7 7 5 4 4 4 3 1 1 4 5 4 5 5
7 6 4 5 4 7 4 3 4 6 6 4 4 5 3 5 5 4 5 5 7 7
7 8 9 7 6 7 9 8 8 7 6 6 7 10 6 4 7 8 8 9 8 8
5 4 5 7 8 9 10 9 8 8 8 8 9 10 11 11 8 9 10 11 10 9
8 7 7 8 8 9 8 9 8 9 10 9 9 12 12 12 10 11 12 13 12 9
8 9 8 9 9 8 9 9 10 9 10 10 10 11 13 10 10 12 13 11 9 9
5 6 6 7 8 7 8 9 9 10 8 9 11 7 14 14 9 10 11 10 8 9
6 6 7 7 8 7 9 10 8 10 9 10 10 10 7 9 7 10 10 9 9 6
Wind_Direction
137 161 148 29 127 135 102 99 106 94 95 92 85 77 77 72 67 45 65 40 8 355
113 114 75 101 153 110 100 119 94 94 95 94 79 83 119 64 72 81 42 76 23 350
111 109 113 107 60 80 89 89 110 93 102 100 87 71 349 127 82 65 43 53 35 7
100 89 85 106 120 116 128 126 103 94 101 97 85 83 102 103 91 79 58 35 24 24
83 82 88 92 97 99 115 123 129 125 145 119 112 109 112 78 89 82 73 39 23 14
128 106 82 87 72 63 54 43 68 54 205 155 156 157 170 129 110 81 40 24 357 356
67 61 76 90 160 169 181 186 185 186 192 194 202 195 193 158 359 4 0 339 334 310
187 191 153 161 174 225 200 214 219 199 210 239 252 238 32 344 319 311 293 297 283 291
188 194 194 163 192 194 215 217 223 232 233 233 252 126 155 247 287 301 292 286 289 295
158 222 230 201 210 223 218 213 235 247 242 241 248 178 196 207 253 273 280 285 277 281
190 214 212 228 225 217 228 241 244 244 237 242 243 198 204 209 253 270 273 270 270 279
209 198 204 215 217 219 232 228 226 238 249 250 256 194 200 196 259 270 279 276 273 273
211 222 223 227 222 231 230 240 249 247 249 254 260 236 189 201 263 277 289 283 282 260
205 212 234 247 243 239 239 256 246 263 272 275 274 273 180 191 277 292 285 291 301 293